Overview Statistics Trail Chart Weather Telemetry Raw packets
 

This is the latest recevied weather packets stored in our database for station/object LU3GHF-13. If no packets are shown the sender has not sent any weather packets the latest 10 day(s).

<< 44 45 46 47 48 49 50 >>
Time Temp. Humidity Pressure Rain* Wind** Luminosity Snow
1787870492 28.89° C 74% 993.2 hPa - - - -
1787869879 28.89° C 73% 993.1 hPa - - - -
1787869257 28.89° C 73% 993 hPa - - - -
1787868655 29.44° C 72% 993 hPa - - - -
1787868001 29.44° C 71% 992.9 hPa - - - -
1787867358 30° C 71% 992.9 hPa - - - -
1787866119 30° C 69% 992.7 hPa - - - -
1787865512 30° C 69% 992.6 hPa - - - -
1787864892 30.56° C 68% 992.6 hPa - - - -
1787864236 30.56° C 67% 992.5 hPa - - - -
1787863612 31.11° C 66% 992.5 hPa - - - -
1787862985 31.11° C 65% 992.4 hPa - - - -
1787862328 31.11° C 65% 992.4 hPa - - - -
1787861706 31.67° C 64% 992.3 hPa - - - -
1787861053 31.67° C 62% 992.1 hPa - - - -
1787860447 32.22° C 61% 991.9 hPa - - - -
1787859820 33.89° C 58% 991.7 hPa - - - -
1787859183 33.33° C 58% 991.7 hPa - - - -
1787858545 34.44° C 57% 991.8 hPa - - - -
1787857924 34.44° C 56% 991.9 hPa - - - -
1787857281 32.78° C 59% 992 hPa - - - -
1787856627 32.78° C 60% 992.1 hPa - - - -
1787856027 31.67° C 62% 992.5 hPa - - - -
1787855394 32.22° C 61% 992.5 hPa - - - -
1787854746 32.22° C 61% 992.6 hPa - - - -

* Rain since midnight (hover to see other rain measurements)
** Current wind speed in m/s (hover to see current wind gust speed)